[[{"header":{"parameterUnit":"m.s-1","parameterCategory":1,"la1":30.2991,"la2":30.254,"lo1":-89.0895,"lo2":-89.0444,"dy":0.0017,"dx":0.0017,"nx":28,"ny":28,"refTime":"2025-11-04T09:00:00:Z","depth":0,"parameterNumber":2,"parameterNumberName":"U-component_of_WINDS"},"data":[0,0,0,0,0,0,0,0,0,0,0,0,0,0,0,0,0,0,0,0,0,0,0,0,0,0,0,0,0,0,0,0,0,0,0,0,0,0,0,0,0,0,0,0,0,0,0,0,0,0,0,0,0,0,0,0,0,0,-0.2434,-0.2434,0,-0.2472,-0.2473,-0.2473,-0.2447,-0.2446,-0.2445,-0.2444,-0.2484,-0.2486,-0.2489,0,0,0,0,0,0,0,0,0,0,0,0,0,-0.2336,-0.2338,-0.2433,-0.2434,-0.2434,-0.2472,-0.2473,-0.2473,-0.2447,-0.2446,-0.2445,-0.2443,-0.2484,-0.2486,-0.2489,0,0,0,0,0,0,0,0,0,0,0,0,0,-0.2377,-0.2339,-0.2433,-0.2426,-0.2426,-0.2472,-0.2473,-0.2474,-0.2448,-0.2446,-0.2444,-0.2442,-0.2483,-0.2486,-0.2489,-0.2545,0,0,-0.2499,-0.2501,0,0,0,0,0,0,0,0,-0.2375,-0.2381,-0.2427,-0.2427,-0.2426,-0.2453,-0.2454,-0.2498,-0.2448,-0.2439,-0.2444,-0.2442,-0.2475,-0.2479,-0.249,-0.2547,-0.2549,-0.2499,-0.2501,-0.2503,-0.2504,0,0,0,0,0,0,0,-0.2372,-0.2379,-0.2449,-0.2427,-0.2427,-0.2421,-0.2425,-0.2462,-0.2467,-0.244,-0.2438,-0.2443,-0.2475,-0.2487,-0.2491,-0.255,-0.2499,-0.2502,-0.2504,-0.2506,-0.2654,-0.2656,0,0,0,0,0,0,-0.237,-0.2377,-0.2448,-0.245,-0.2396,-0.2424,-0.2428,-0.2446,-0.2467,-0.2468,-0.2445,-0.2442,-0.2483,-0.2487,-0.2493,-0.256,-0.2503,-0.2506,-0.2508,-0.2652,-0.2654,-0.2656,0,0,0,0,0,0,-0.2368,-0.2377,-0.2446,-0.2413,-0.2421,-0.2427,-0.2448,-0.2448,-0.246,-0.247,-0.2471,-0.2456,-0.2481,-0.2488,-0.2532,-0.2561,-0.2507,-0.251,-0.265,-0.2653,-0.2655,-0.2695,0,0,0,0,0,0,-0.2365,-0.2376,-0.2398,-0.2414,-0.2423,-0.2485,-0.245,-0.245,-0.2466,-0.2463,-0.2481,-0.2483,-0.248,-0.2527,-0.2536,-0.2564,-0.2513,-0.2647,-0.2651,-0.2654,-0.2691,-0.2699,-0.2705,0,0,0,0,0,-0.2362,-0.2407,-0.2399,-0.2408,-0.245,-0.2487,-0.2493,-0.2489,-0.2468,-0.249,-0.2496,-0.2482,-0.2556,-0.2532,-0.2541,-0.2571,-0.2645,-0.265,-0.2654,-0.2688,-0.2697,-0.2705,0,0,0,0,0,0,-0.2395,-0.2409,-0.24,-0.2452,-0.2468,-0.2483,-0.251,-0.2499,-0.2522,-0.2518,-0.2513,-0.2517,-0.2564,-0.2572,-0.2545,-0.2627,-0.2597,-0.2604,-0.262,-0.2629,-0.2636,-0.2634,-0.2516,0,0,0,0,0,-0.2408,-0.2437,-0.2448,-0.2492,-0.2501,-0.2504,-0.252,-0.2516,-0.2533,-0.254,-0.2549,-0.2566,-0.2593,-0.2611,-0.2637,-0.2691,-0.2695,-0.2716,-0.2724,-0.2729,-0.2735,-0.2765,-0.2775,-0.2671,-0.2671,-0.2671,0,0,-0.2436,-0.2447,-0.2466,-0.2499,-0.2512,-0.2542,-0.251,-0.2543,-0.2565,-0.2545,-0.2588,-0.2595,-0.2613,-0.2663,-0.2685,-0.2671,-0.2765,-0.2735,-0.274,-0.2743,-0.277,-0.278,-0.2789,-0.2674,-0.2673,-0.2673,0,0,-0.2502,-0.2514,-0.2552,-0.2565,-0.2584,-0.2585,-0.2594,-0.261,-0.2614,-0.2656,-0.2641,-0.2667,-0.2714,-0.2728,-0.2741,-0.2811,-0.2799,-0.2819,-0.2858,-0.2886,-0.2894,-0.2902,-0.2927,-0.2936,-0.2825,-0.2825,-0.2825,0,-0.2535,-0.2579,-0.2573,-0.2607,-0.2623,-0.2604,-0.2643,-0.2656,-0.2682,-0.2693,-0.2676,-0.2734,-0.2746,-0.2798,-0.2815,-0.2826,-0.2837,-0.2818,-0.2894,-0.2901,-0.2908,-0.2932,-0.2941,-0.2828,-0.2827,-0.2827,-0.2827,0,-0.2618,-0.2649,-0.2678,-0.2704,-0.2722,-0.2758,-0.2758,-0.2777,-0.277,-0.2774,-0.2817,-0.2829,-0.2857,-0.2869,-0.2863,-0.2921,-0.2911,-0.2894,-0.2865,-0.292,-0.2943,-0.2952,-0.2831,-0.283,-0.2829,-0.2829,0,0,-0.2708,-0.2729,-0.274,-0.2751,-0.277,-0.2794,-0.2829,-0.2855,-0.2872,-0.289,-0.292,-0.2959,-0.2943,-0.2958,-0.2953,-0.2979,-0.3034,-0.2958,-0.2959,-0.2973,-0.3098,-0.3112,-0.3123,-0.3025,-0.3027,-0.3028,-0.3097,0,-0.2776,-0.2838,-0.2833,-0.2891,-0.292,-0.2902,-0.2933,-0.2947,-0.2951,-0.2975,-0.2979,-0.3007,-0.2984,-0.2993,-0.3017,-0.3022,-0.3059,-0.3017,-0.3053,-0.3054,-0.305,-0.3134,-0.3149,-0.3213,-0.3105,-0.3107,-0.3108,0,-0.2864,-0.2885,-0.2946,-0.296,-0.2972,-0.3,-0.3023,-0.3047,-0.3063,-0.3064,-0.308,-0.3071,-0.3106,-0.3075,-0.3123,-0.3094,-0.3109,-0.3113,-0.3116,-0.312,-0.3086,-0.3142,-0.3234,-0.3244,-0.3122,-0.3121,-0.312,0,-0.2925,-0.2968,-0.301,-0.302,-0.3037,-0.3057,-0.3065,-0.3079,-0.3095,-0.3116,-0.3126,-0.315,-0.3164,-0.3183,-0.318,-0.3158,-0.323,-0.3198,-0.3232,-0.3232,-0.3249,-0.3248,-0.3346,-0.3256,-0.3256,-0.3256,-0.3256,0,-0.3002,-0.304,-0.3037,-0.3064,-0.3106,-0.3099,-0.3141,-0.3147,-0.3159,-0.3186,-0.3172,-0.3197,-0.3192,-0.3217,-0.3215,-0.3255,-0.3261,-0.3263,-0.3262,-0.3265,-0.3265,-0.3275,-0.3271,-0.3259,-0.3258,-0.3258,-0.3257,0,-0.3077,-0.3077,-0.3122,-0.3134,-0.3138,-0.3168,-0.3179,-0.3203,-0.3204,-0.3239,-0.3246,-0.3249,-0.3278,-0.3276,-0.3309,-0.3308,-0.3358,-0.3351,-0.3353,-0.3352,-0.3385,-0.3383,-0.3494,-0.3508,-0.3409,-0.341,-0.341,0,-0.3127,-0.3156,-0.3171,-0.3188,-0.3197,-0.3224,-0.324,-0.3235,-0.3252,-0.3272,-0.3294,-0.3321,-0.3343,-0.339,-0.3394,-0.3419,-0.3414,-0.3451,-0.3418,-0.3419,-0.3415,-0.3414,-0.3417,-0.3458,-0.3459,-0.346,-0.3461,0,-0.3216,-0.3214,-0.3238,-0.3262,-0.3281,-0.33,-0.3317,-0.3331,-0.3327,-0.3347,-0.3376,-0.3393,-0.3426,-0.3453,-0.3477,-0.3485,-0.3472,-0.3471,-0.348,-0.3484,-0.3484,-0.3485,-0.3372,-0.3469,-0.3468,-0.3467,-0.3467,-0.3467,-0.3281,-0.3306,-0.332,-0.3347,-0.3359,-0.3375,-0.3398,-0.3402,-0.3426,-0.3453,-0.3448,-0.348,-0.3495,-0.3525,-0.3535,-0.356,-0.3547,-0.356,-0.3563,-0.3567,-0.3571,-0.3479,-0.3564,-0.3564,-0.3564,-0.3563,-0.3563,0,-0.337,-0.3378,-0.3402,-0.3426,-0.3447,-0.3433,-0.345,-0.3469,-0.3498,-0.3512,-0.3534,-0.3567,-0.3593,-0.3599,-0.3624,-0.3643,-0.3638,-0.365,-0.3649,-0.3651,-0.3581,-0.3571,-0.3654,-0.3654,-0.3654,-0.3654,-0.3654,-0.3653,-0.3418,-0.346,-0.3459,-0.3506,-0.3514,-0.3546,-0.3557,-0.3571,-0.3583,-0.3621,-0.3642,-0.3646,-0.3657,-0.3682,-0.3705,-0.3706,-0.3717,-0.3731,-0.373,-0.3665,-0.3656,-0.3647,-0.3638,-0.3733,-0.3733,-0.3798,-0.3798,-0.3799]},{"header":{"parameterUnit":"m.s-1","parameterCategory":1,"la1":30.2991,"la2":30.254,"lo1":-89.0895,"lo2":-89.0444,"dy":0.0017,"dx":0.0017,"nx":28,"ny":28,"refTime":"2025-11-04T09:00:00:Z","depth":0,"parameterNumber":3,"parameterNumberName":"V-component_of_WINDS"},"data":[0,0,0,0,0,0,0,0,0,0,0,0,0,0,0,0,0,0,0,0,0,0,0,0,0,0,0,0,0,0,0,0,0,0,0,0,0,0,0,0,0,0,0,0,0,0,0,0,0,0,0,0,0,0,0,0,0,0,-2.4042,-2.4042,0,-2.4096,-2.4097,-2.4097,-2.4053,-2.4051,-2.4049,-2.4048,-2.4103,-2.4107,-2.411,0,0,0,0,0,0,0,0,0,0,0,0,0,-2.3899,-2.3902,-2.4042,-2.4042,-2.4043,-2.4096,-2.4097,-2.4098,-2.4053,-2.4051,-2.4049,-2.4047,-2.4102,-2.4106,-2.411,0,0,0,0,0,0,0,0,0,0,0,0,0,-2.3958,-2.3903,-2.4041,-2.4027,-2.4027,-2.4096,-2.4097,-2.4098,-2.4054,-2.4051,-2.4048,-2.4046,-2.4101,-2.4106,-2.4111,-2.4197,0,0,-2.4125,-2.4127,0,0,0,0,0,0,0,0,-2.3955,-2.3964,-2.4029,-2.4028,-2.4028,-2.4065,-2.4067,-2.4131,-2.4055,-2.4044,-2.4048,-2.4044,-2.4093,-2.4098,-2.4115,-2.4199,-2.4202,-2.4126,-2.4129,-2.4131,-2.4132,0,0,0,0,0,0,0,-2.3951,-2.3961,-2.4063,-2.403,-2.4029,-2.4018,-2.4024,-2.4079,-2.4083,-2.4044,-2.4041,-2.4048,-2.4092,-2.411,-2.4116,-2.4202,-2.4126,-2.413,-2.4133,-2.4135,-2.436,-2.4363,0,0,0,0,0,0,-2.3948,-2.3958,-2.4061,-2.4065,-2.3984,-2.4023,-2.4029,-2.4056,-2.4083,-2.4084,-2.4051,-2.4046,-2.4103,-2.411,-2.4117,-2.422,-2.4131,-2.4135,-2.4138,-2.4357,-2.4361,-2.4364,0,0,0,0,0,0,-2.3945,-2.3958,-2.4059,-2.4011,-2.4023,-2.4029,-2.4059,-2.4058,-2.4076,-2.4087,-2.4088,-2.4068,-2.4101,-2.4111,-2.4177,-2.4221,-2.4138,-2.4142,-2.4354,-2.4359,-2.4363,-2.4426,0,0,0,0,0,0,-2.3942,-2.3957,-2.399,-2.4012,-2.4025,-2.4118,-2.4062,-2.4062,-2.4085,-2.4079,-2.4104,-2.4105,-2.41,-2.417,-2.4182,-2.4226,-2.4146,-2.435,-2.4356,-2.4361,-2.442,-2.4432,-2.4442,0,0,0,0,0,-2.3937,-2.4006,-2.3992,-2.4005,-2.4066,-2.4121,-2.4129,-2.4121,-2.4089,-2.4122,-2.4129,-2.4105,-2.4215,-2.4178,-2.419,-2.4237,-2.4347,-2.4354,-2.4361,-2.4415,-2.4429,-2.4442,0,0,0,0,0,0,-2.3989,-2.4008,-2.3993,-2.4071,-2.4095,-2.4113,-2.4155,-2.4137,-2.417,-2.4164,-2.4153,-2.4159,-2.4229,-2.4239,-2.4198,-2.4321,-2.4276,-2.4285,-2.4312,-2.4326,-2.4337,-2.4333,-2.415,0,0,0,0,0,-2.401,-2.4052,-2.4067,-2.4134,-2.4147,-2.4149,-2.4172,-2.4164,-2.4188,-2.4198,-2.421,-2.4234,-2.4274,-2.4301,-2.4338,-2.4421,-2.4426,-2.4459,-2.4471,-2.448,-2.4488,-2.4533,-2.4548,-2.4387,-2.4387,-2.4387,0,0,-2.4052,-2.4068,-2.4096,-2.4145,-2.4162,-2.4207,-2.4158,-2.4207,-2.424,-2.4205,-2.4269,-2.4279,-2.4305,-2.438,-2.4414,-2.4391,-2.4534,-2.4489,-2.4496,-2.45,-2.4542,-2.4557,-2.457,-2.4392,-2.4391,-2.439,0,0,-2.4153,-2.417,-2.4228,-2.4246,-2.4273,-2.4274,-2.4288,-2.431,-2.4315,-2.4378,-2.4354,-2.4393,-2.4462,-2.4482,-2.4501,-2.461,-2.4589,-2.4622,-2.4681,-2.4725,-2.4737,-2.4748,-2.4787,-2.4801,-2.4631,-2.4631,-2.4631,0,-2.4203,-2.4269,-2.426,-2.4311,-2.4333,-2.4304,-2.4363,-2.4381,-2.4419,-2.4435,-2.4409,-2.4495,-2.4511,-2.459,-2.4617,-2.4634,-2.4649,-2.4619,-2.4736,-2.4747,-2.4758,-2.4794,-2.4809,-2.4635,-2.4634,-2.4634,-2.4633,0,-2.4329,-2.4376,-2.4419,-2.4456,-2.4484,-2.4538,-2.4537,-2.4566,-2.4555,-2.4559,-2.4624,-2.4642,-2.4683,-2.4701,-2.4691,-2.4779,-2.4764,-2.4738,-2.4691,-2.4777,-2.4811,-2.4825,-2.464,-2.4639,-2.4638,-2.4637,0,0,-2.4465,-2.4496,-2.4512,-2.4529,-2.4556,-2.4592,-2.4645,-2.4685,-2.471,-2.4737,-2.4781,-2.4841,-2.4816,-2.4838,-2.483,-2.4869,-2.4954,-2.4837,-2.4837,-2.4858,-2.5051,-2.5071,-2.5088,-2.494,-2.4943,-2.4945,-2.5049,0,-2.4567,-2.4659,-2.4652,-2.474,-2.4782,-2.4756,-2.4802,-2.4824,-2.4829,-2.4866,-2.4872,-2.4914,-2.4878,-2.4891,-2.4928,-2.4935,-2.4992,-2.4928,-2.4981,-2.4983,-2.4975,-2.5106,-2.5127,-2.5224,-2.5062,-2.5065,-2.5066,0,-2.4698,-2.473,-2.4822,-2.4843,-2.4861,-2.4903,-2.4938,-2.4974,-2.4998,-2.4999,-2.5024,-2.501,-2.5064,-2.5016,-2.509,-2.5047,-2.5068,-2.5075,-2.5078,-2.5083,-2.503,-2.5114,-2.5255,-2.527,-2.5088,-2.5086,-2.5084,0,-2.4788,-2.4853,-2.4917,-2.4932,-2.4958,-2.4988,-2.5001,-2.5022,-2.5047,-2.5078,-2.5094,-2.5131,-2.5151,-2.5181,-2.5177,-2.5143,-2.5252,-2.5204,-2.5254,-2.5255,-2.5278,-2.5277,-2.5426,-2.5293,-2.5293,-2.5292,-2.5292,0,-2.4902,-2.4959,-2.4957,-2.4996,-2.5059,-2.5051,-2.5114,-2.5123,-2.5142,-2.5183,-2.5162,-2.52,-2.5193,-2.5231,-2.5229,-2.5291,-2.53,-2.5302,-2.5301,-2.5304,-2.5304,-2.5318,-2.5311,-2.5296,-2.5295,-2.5295,-2.5294,0,-2.5012,-2.5013,-2.5081,-2.51,-2.5106,-2.5152,-2.5169,-2.5206,-2.5209,-2.5261,-2.5272,-2.5278,-2.5322,-2.5321,-2.5371,-2.5369,-2.5445,-2.5436,-2.5437,-2.5435,-2.5485,-2.548,-2.5647,-2.5669,-2.5522,-2.5524,-2.5525,0,-2.5085,-2.5129,-2.5153,-2.5179,-2.5193,-2.5234,-2.5259,-2.5252,-2.5279,-2.531,-2.5343,-2.5385,-2.5419,-2.549,-2.5499,-2.5537,-2.5528,-2.5585,-2.5534,-2.5536,-2.5529,-2.5527,-2.5531,-2.5594,-2.5596,-2.5597,-2.5598,0,-2.5215,-2.5213,-2.5249,-2.5286,-2.5316,-2.5345,-2.5371,-2.5393,-2.5389,-2.542,-2.5465,-2.5491,-2.5542,-2.5584,-2.5621,-2.5634,-2.5616,-2.5614,-2.5628,-2.5631,-2.563,-2.5631,-2.5463,-2.561,-2.5609,-2.5608,-2.5608,-2.5607,-2.5309,-2.5346,-2.5369,-2.541,-2.5429,-2.5454,-2.549,-2.5498,-2.5535,-2.5576,-2.557,-2.562,-2.5643,-2.5691,-2.5707,-2.5746,-2.5726,-2.5746,-2.5751,-2.5756,-2.5761,-2.5624,-2.5753,-2.5752,-2.5752,-2.5752,-2.5752,0,-2.5437,-2.545,-2.5488,-2.5526,-2.5558,-2.5538,-2.5567,-2.5595,-2.5639,-2.5663,-2.5696,-2.5747,-2.5788,-2.58,-2.5839,-2.5868,-2.5861,-2.5879,-2.5876,-2.588,-2.5777,-2.5761,-2.5884,-2.5884,-2.5884,-2.5884,-2.5884,-2.5884,-2.5507,-2.5569,-2.557,-2.5642,-2.5655,-2.5703,-2.5721,-2.5744,-2.5763,-2.5821,-2.5855,-2.5862,-2.5881,-2.5922,-2.5958,-2.5961,-2.5976,-2.5997,-2.5996,-2.59,-2.5887,-2.5874,-2.5859,-2.6001,-2.6001,-2.6096,-2.6097,-2.6097]}]]